Location: Muenchen
(48.1800°N, 11.5800°E)
Time: 21:04:41
(UTC+01:00)

Tiros 1 - Visible Passes

Search period start: 24 November 2017 00:00
Search period end: 04 December 2017 00:00
Orbit: 630 x 665 km, 48.4° (Epoch: 24 November)

Date Brightness Start Highest point End Pass type
(mag) Time Alt. Az. Time Alt. Az. Time Alt. Az.
24 Nov 10.0 03:35:45 14° E 03:35:45 14° E 03:36:27 10° E visible
24 Nov 7.0 05:13:26 71° WNW 05:13:57 86° N 05:18:41 10° E visible
24 Nov 7.5 06:51:28 10° W 06:56:08 61° SSW 07:00:44 10° ESE visible
25 Nov 9.4 04:00:52 23° E 04:00:52 23° E 04:02:39 10° E visible
25 Nov 7.1 05:38:32 41° W 05:40:11 85° SSW 05:44:54 10° ESE visible
26 Nov 8.5 04:25:58 38° E 04:25:58 38° E 04:28:53 10° E visible
26 Nov 7.3 06:03:38 25° W 06:06:21 63° SSW 06:10:59 10° ESE visible
27 Nov 7.4 04:51:05 65° ESE 04:51:05 65° ESE 04:55:07 10° ESE visible
27 Nov 7.9 06:28:46 15° W 06:32:22 40° SSW 06:36:45 10° SE visible
28 Nov 10.1 03:38:33 13° E 03:38:33 13° E 03:39:06 10° E visible
28 Nov 7.1 05:16:14 64° SW 05:16:33 66° SSW 05:21:13 10° ESE visible
28 Nov 8.7 06:54:30 10° W 06:58:13 23° SW 07:01:54 10° SSE visible
29 Nov 9.5 04:03:44 21° E 04:03:44 21° E 04:05:19 10° E visible
29 Nov 7.8 05:41:25 35° WSW 05:42:35 42° SSW 05:47:01 10° SE visible
30 Nov 8.8 04:28:57 31° SE 04:28:57 31° SE 04:31:27 10° ESE visible
30 Nov 8.5 06:06:38 19° WSW 06:08:28 25° SW 06:12:16 10° SSE visible
01 Dec 8.3 04:54:14 34° SSE 04:54:14 34° SSE 04:57:17 10° SE visible
01 Dec 9.3 06:32:05 10° WSW 06:34:09 13° SW 06:36:12 10° SSW visible
02 Dec 8.6 05:19:34 25° SSW 05:19:34 25° SSW 05:22:37 10° SSE visible
03 Dec 10.0 04:07:16 12° SE 04:07:16 12° SE 04:07:33 10° SE visible
03 Dec 9.2 05:44:58 14° SW 05:44:58 14° SW 05:46:47 10° SSW visible
